User: anonymous   Login
Location: Brachbach
(49.1847°N, 9.7240°E)
Time: 06:56:01
(UTC+00:00)
Language:

Cosmos 1025 Rocket - Orbit

View from above orbital plane
View from above orbital plane
View from above satellite
View from above satellite

Ground track
Ground track

The orbit data is extracted from the following two-line orbital elements,

1 10974U 78067B   24202.58386504  .00001131  00000-0  11816-3 0  9994
2 10974  82.4797 234.6313 0017797  39.6603 320.5913 14.88720611471520
Epoch (UTC): 20 July 2024 14:00:45
Eccentricity: 0.0017797
inclination: 82.4797°
perigee height: 589 km
apogee height: 614 km
right ascension of ascending node: 234.6313°
argument of perigee: 39.6603°
revolutions per day: 14.88720611
mean anomaly at epoch: 320.5913°
orbit number at epoch: 47152

The dashed part of the orbit path shows where the satellite is in the earth's shadow,  

DLR